AFL350 URMM-URSS

Flight info

Callsign AFL350
Flight time N/A
Altitude 28000
Route ABELA5M ABELA B967 ERSAR G487 BINOL BINOL1L
Aircraft A320/M-SDE3FGHIRWY/LB1

Departure

Time 2026-04-30 19:41
Airport Mineralnye Vody Airport (URMM)

Arrival

Time N/A
Airport Sochi International Airport (URSS)
Time Latitude Longitude Altitude Speed Heading
2026-04-30 19:25 44.21714 43.09071 1051 ft 0 kts 212°
2026-04-30 19:33 44.21715 43.09072 1051 ft 1 kts 212°
2026-04-30 19:33 44.21730 43.09084 1051 ft 3 kts 210°
2026-04-30 19:34 44.21747 43.09098 1051 ft 3 kts 206°
2026-04-30 19:34 44.21766 43.09109 1051 ft 3 kts 197°
2026-04-30 19:34 44.21800 43.09110 1051 ft 2 kts 129°
2026-04-30 19:35 44.21802 43.09106 1051 ft 0 kts 122°
2026-04-30 19:36 44.21788 43.09138 1051 ft 9 kts 122°
2026-04-30 19:37 44.21732 43.09260 1051 ft 20 kts 123°
2026-04-30 19:37 44.21676 43.09345 1051 ft 0 kts 119°
2026-04-30 19:37 44.21675 43.09349 1051 ft 3 kts 119°
2026-04-30 19:38 44.21642 43.09429 1051 ft 15 kts 119°
2026-04-30 19:38 44.21566 43.09594 1051 ft 25 kts 120°
2026-04-30 19:38 44.21503 43.09727 1051 ft 2 kts 107°
2026-04-30 19:38 44.21493 43.09757 1051 ft 7 kts 118°
2026-04-30 19:39 44.21487 43.09784 1051 ft 0 kts 112°
2026-04-30 19:39 44.21491 43.09791 1051 ft 2 kts 53°
2026-04-30 19:39 44.21523 43.09859 1051 ft 14 kts 72°
2026-04-30 19:39 44.21557 43.10039 1051 ft 24 kts 77°
2026-04-30 19:40 44.21611 43.10225 1052 ft 20 kts 43°
2026-04-30 19:40 44.21715 43.10315 1051 ft 9 kts
2026-04-30 19:40 44.21794 43.10244 1053 ft 23 kts 310°
2026-04-30 19:40 44.22022 43.09766 1058 ft 95 kts 302°
2026-04-30 19:41 44.22481 43.08745 1056 ft 151 kts 302°
2026-04-30 19:41 44.23098 43.07403 1414 ft 171 kts 303°
2026-04-30 19:41 44.23773 43.05938 1960 ft 189 kts 305°
2026-04-30 19:41 44.24517 43.04303 2445 ft 212 kts 306°
2026-04-30 19:42 44.25351 43.02461 2923 ft 236 kts 305°
2026-04-30 19:42 44.26266 43.00436 3545 ft 254 kts 304°
2026-04-30 19:42 44.27211 42.98324 4431 ft 260 kts 302°
2026-04-30 19:42 44.28175 42.96166 5350 ft 266 kts 301°
2026-04-30 19:43 44.29166 42.93947 6282 ft 271 kts 301°
2026-04-30 19:43 44.30173 42.91698 7180 ft 274 kts 300°
2026-04-30 19:43 44.31168 42.89422 8140 ft 274 kts 294°
2026-04-30 19:44 44.31787 42.85504 9647 ft 267 kts 263°
2026-04-30 19:44 44.31616 42.83908 10198 ft 267 kts 253°
2026-04-30 19:44 44.31027 42.81923 10855 ft 271 kts 240°
2026-04-30 19:45 44.29870 42.79653 11153 ft 295 kts 233°
2026-04-30 19:45 44.28595 42.77318 11410 ft 317 kts 233°
2026-04-30 19:45 44.27230 42.74827 11982 ft 326 kts 233°
2026-04-30 19:45 44.26492 42.73479 12382 ft 329 kts 234°
2026-04-30 19:46 44.25317 42.71330 13034 ft 331 kts 234°
2026-04-30 19:46 44.23918 42.68767 13849 ft 334 kts 235°
2026-04-30 19:46 44.22510 42.66193 14571 ft 336 kts 235°
2026-04-30 19:47 44.21081 42.63581 15257 ft 339 kts 236°
2026-04-30 19:47 44.20212 42.61731 15706 ft 339 kts 243°
2026-04-30 19:47 44.19097 42.57661 16579 ft 341 kts 257°
2026-04-30 19:47 44.18791 42.54371 17229 ft 344 kts 264°
2026-04-30 19:48 44.18596 42.51031 17880 ft 347 kts 264°
2026-04-30 19:48 44.18394 42.47670 18502 ft 350 kts 264°
2026-04-30 19:48 44.18183 42.44273 19043 ft 353 kts 264°
2026-04-30 19:48 44.17970 42.40871 19594 ft 355 kts 264°
2026-04-30 19:49 44.17754 42.37424 20144 ft 357 kts 264°
2026-04-30 19:49 44.17322 42.30484 21222 ft 362 kts 264°
2026-04-30 19:49 44.17099 42.26976 21747 ft 365 kts 264°
2026-04-30 19:50 44.16873 42.23453 22266 ft 367 kts 264°
2026-04-30 19:50 44.16646 42.19901 22787 ft 369 kts 264°
2026-04-30 19:50 44.16416 42.16333 23296 ft 371 kts 264°
2026-04-30 19:50 44.16185 42.12734 23770 ft 374 kts 264°
2026-04-30 19:51 44.15952 42.09119 24193 ft 376 kts 264°
2026-04-30 19:51 44.15717 42.05488 24626 ft 377 kts 264°
2026-04-30 19:51 44.15479 42.01845 25049 ft 378 kts 264°
2026-04-30 19:51 44.15239 41.98197 25456 ft 380 kts 264°
2026-04-30 19:52 44.14995 41.94534 25862 ft 381 kts 264°
2026-04-30 19:52 44.14748 41.90851 26262 ft 383 kts 264°
2026-04-30 19:52 44.14583 41.88405 26521 ft 384 kts 264°
2026-04-30 19:52 44.14334 41.84697 26908 ft 386 kts 264°
2026-04-30 19:53 44.14084 41.80970 27288 ft 387 kts 264°
2026-04-30 19:53 44.13831 41.77217 27684 ft 388 kts 264°
2026-04-30 19:53 44.13579 41.73478 28054 ft 389 kts 264°
2026-04-30 19:53 44.13327 41.69742 28148 ft 388 kts 264°
2026-04-30 19:54 44.12813 41.62274 28154 ft 387 kts 264°
2026-04-30 19:54 44.12286 41.54825 28163 ft 387 kts 264°
2026-04-30 19:55 44.11524 41.47433 28153 ft 387 kts 255°
2026-04-30 19:55 44.09534 41.40430 28154 ft 390 kts 249°
2026-04-30 19:56 44.07420 41.33482 28146 ft 390 kts 249°
2026-04-30 19:56 44.05299 41.26544 28147 ft 390 kts 249°
2026-04-30 19:57 44.03175 41.19615 28138 ft 390 kts 249°
2026-04-30 19:57 44.01053 41.12697 28133 ft 389 kts 249°
2026-04-30 19:58 43.98921 41.05771 28121 ft 390 kts 249°
2026-04-30 19:58 43.96779 40.98849 28127 ft 390 kts 249°
2026-04-30 19:59 43.94637 40.91935 28127 ft 389 kts 249°
2026-04-30 20:00 43.91428 40.81583 28111 ft 389 kts 249°
2026-04-30 20:00 43.89285 40.74701 28107 ft 390 kts 249°
2026-04-30 20:01 43.86036 40.64373 28101 ft 389 kts 249°
2026-04-30 20:01 43.83843 40.57514 28101 ft 390 kts 249°
2026-04-30 20:02 43.81647 40.50657 26828 ft 389 kts 248°
2026-04-30 20:02 43.80544 40.47200 25796 ft 394 kts 248°
2026-04-30 20:03 43.78339 40.40326 24278 ft 389 kts 247°
2026-04-30 20:03 43.77243 40.36918 23569 ft 385 kts 247°
2026-04-30 20:03 43.76174 40.33600 22764 ft 383 kts 247°
2026-04-30 20:03 43.75093 40.30247 22052 ft 380 kts 247°
2026-04-30 20:04 43.74020 40.26926 21363 ft 377 kts 247°
2026-04-30 20:04 43.72957 40.23639 20711 ft 374 kts 247°
2026-04-30 20:04 43.71913 40.20414 19998 ft 371 kts 246°
2026-04-30 20:05 43.69605 40.14037 18766 ft 368 kts 236°
2026-04-30 20:05 43.67939 40.11362 18152 ft 367 kts 226°
2026-04-30 20:05 43.63671 40.07650 17370 ft 356 kts 208°
2026-04-30 20:06 43.61464 40.06286 17231 ft 340 kts 208°
2026-04-30 20:06 43.59351 40.04966 17101 ft 327 kts 209°
2026-04-30 20:06 43.57350 40.03707 16979 ft 315 kts 209°
2026-04-30 20:06 43.55376 40.02480 16391 ft 316 kts 206°
2026-04-30 20:07 43.53176 40.01646 15484 ft 324 kts 194°
2026-04-30 20:07 43.50942 40.01498 14358 ft 325 kts 179°
2026-04-30 20:07 43.46904 40.03760 12653 ft 318 kts 147°
2026-04-30 20:08 43.45332 40.05904 11655 ft 318 kts 131°
2026-04-30 20:08 43.44220 40.08507 10774 ft 315 kts 114°
2026-04-30 20:08 43.43483 40.11262 10276 ft 301 kts 120°
2026-04-30 20:08 43.42170 40.13335 9709 ft 282 kts 153°
2026-04-30 20:09 43.40362 40.14039 9113 ft 268 kts 186°
2026-04-30 20:09 43.38556 40.13542 8416 ft 264 kts 193°
2026-04-30 20:09 43.35333 40.15143 7333 ft 263 kts 122°
2026-04-30 20:10 43.33468 40.19386 7254 ft 265 kts 154°
2026-04-30 20:10 43.31688 40.19849 7393 ft 265 kts 186°
2026-04-30 20:10 43.29966 40.18989 7475 ft 268 kts 214°
2026-04-30 20:11 43.28385 40.14507 7617 ft 277 kts 271°
2026-04-30 20:11 43.28904 40.11961 7749 ft 282 kts 291°
2026-04-30 20:11 43.29701 40.09503 7875 ft 281 kts 288°